weather.gov     
National Weather Service

Regional Weather Roundup
NWS Homepage
This page is being discontinued on March 12, 2014.
The same data is available at this site. Please update your bookmarks.
Thank you, and we apologize for the inconvenience.
Please send an email to SR-SRH.Webmaster@noaa.gov with any concerns.


Current Version
Previous Version:    01  02  03  04  05  06  07  08  09  10  11  12  13  14  15  16  17  18  19  20  21  22  23  24  25  26  27  28  29  30  
   31  32  33  34  35  36  37  38  39  40  41  42  43  44  45  46  47  48  49  50  51  52  53  54  55  56  57  58  59  60  
[Printable]
520
ASUS44 KFWD 231415
RWRTX
NORTH TEXAS HOURLY WEATHER ROUNDUP
NATIONAL WEATHER SERVICE FORT WORTH TX
800 AM CST SUN NOV 23 2014

NOTE: "FAIR" INDICATES FEW OR NO CLOUDS BELOW 12,000 FEET WITH NO
SIGNIFICANT WEATHER AND/OR OBSTRUCTIONS TO VISIBILITY.

TXZ118-119-231500-
DALLAS/FORT WORTH METROPLEX

CITY           SKY/WX    TMP DP  RH WIND       PRES   REMARKS
DFW AIRPORT    PTCLDY    56  53  90 S9        29.56F
DALLAS LOVE    PTCLDY    57  55  93 S8        29.58F
FTW MEACHAM    CLEAR     54  52  93 S7        29.57S
DAL-EXECUTIVE  CLEAR     57  54  89 S5        29.57F
FTW-ALLIANCE   PTCLDY    54  52  93 S7        29.56F
FTW-SPINKS     CLEAR     55  54  94 SW12      29.59F
ARLINGTON      CLEAR     54  51  90 S8        29.57F
GRAND PRAIRIE  CLEAR     54  54 100 S7        29.59
ADDISON        CLEAR     57  55  94 S7        29.58F
MESQUITE         N/A     55  55 100 S9        29.59F FOG
LANCASTER      FOG       55  53  95 S6        29.60F VSB 3/4
$$

TXZ091>094-102>105-117-120-121-131>134-231500-
NORTH CENTRAL TEXAS

CITY           SKY/WX    TMP DP  RH WIND       PRES   REMARKS
SHRMAN/DENISON CLOUDY    58  58 100 S9        29.56F FOG
GAINESVILLE    PTCLDY    52  52  99 SE9       29.56S FOG
BOWIE          CLOUDY    52  51  99 S9        29.52F
BRIDGEPORT     CLEAR     53  53 100 CALM      29.56S
DECATUR        CLEAR     54  52  94 S12       29.55S
DENTON         CLEAR     52  52 100 S8        29.55F
MCKINNEY       CLOUDY    57  56  96 S12       29.57F FOG
GREENVILLE     PTCLDY    59  55  88 S5        29.59F
ROCKWALL       FOG       56  56 100 SW12      29.58F VSB 1/4
TERRELL        CLOUDY    59  57  93 SW12      29.60S FOG
WAXAHACHIE     CLEAR     54  54 100 S6        29.61F
CLEBURNE       CLEAR     54  54 100 S6        29.60F
GRANBURY       CLEAR     55  52  89 S5        29.60R
$$

TXZ083>090-098>101-113>116-127>130-139>142-154-155-231500-
WESTERN NORTH TEXAS

CITY           SKY/WX    TMP DP  RH WIND       PRES   REMARKS
WICHITA FALLS  PTCLDY    51  49  92 S13       29.46F
WF-KICKAPOO    CLEAR     50  50 100 S7        29.49F
VERNON         CLEAR     48  46  93 SW9       29.47S
ABILENE        CLEAR     50  43  77 S10       29.59F
ABILENE-DYESS  CLEAR     56  35  45 W16G23    29.58S
BRECKENRIDGE   CLEAR     55  46  73 SW9       29.55F HAZE
GRAHAM         CLEAR     52  50  94 S7        29.52F
MINERAL WELLS  PTCLDY   N/A N/A N/A SE8       29.55F
STEPHENVILLE   MOCLDY    49  48  94 S3        29.62S
COMANCHE       CLEAR     53  49  87 SW13G18   29.60F
BROWNWOOD      CLEAR     48  48 100 CALM      29.64S
COLEMAN        CLEAR     54  44  71 SW15G23   29.62S
BRADY          CLEAR     52  45  76 SW7       29.65S
$$

TXZ143>147-156>162-174-175-231500-
CENTRAL TEXAS

CITY           SKY/WX    TMP DP  RH WIND       PRES   REMARKS
WACO           CLEAR     54  53  97 S9        29.62F
WACO-TSTC      CLEAR     55  55 100 S6        29.62F
WACO-MCGREGOR  CLEAR     54  48  82 S7        29.63F
HILLSBORO      CLEAR     54  52  94 S7        29.60F
CORSICANA      CLOUDY    59  57  93 SW9       29.63S FOG
MEXIA          CLOUDY    58  57  97 SW10      29.63S FOG
HEARNE         PTSUNNY   58  57  94 CALM      29.67S
CAMERON        MOSUNNY   58  57  96 S6        29.65F
TEMPLE         PTCLDY    54  50  87 S7        29.63S
KILLEEN        CLEAR     55  53  94 SW12      29.63F
KILLEEN-SKYLRK CLEAR     54  48  82 SW7       29.62R
FORT HOOD      CLEAR     57  53  86 S9        29.63F
GATESVILLE     CLEAR     55  54  94 SW9       29.64F
LAMPASAS       CLEAR     54  53  96 SW5       29.64S
$$

TXZ095>097-106>112-122>126-135>138-148>153-164>167-231500-
EAST TEXAS

CITY           SKY/WX    TMP DP  RH WIND       PRES   REMARKS
PARIS          CLOUDY    59  57  94 S3        29.59S
SULPHUR SPRNGS CLOUDY    59  59 100 SW3       29.62R
MOUNT PLEASANT CLOUDY    60  59  98 SE5       29.59S
MINEOLA        PTSUNNY   59  59 100 CALM      29.62R
TYLER          LGT RAIN  60  58  92 SW10      29.61R FOG
LONGVIEW       CLOUDY    62  60  93 S5        29.58F
MARSHALL       CLOUDY    60  57  92 SW3       29.62F
ATHENS         CLOUDY    57  57 100 SW3       29.62R FOG
PALESTINE      CLOUDY    60  60 100 SW6       29.65R FOG
JACKSONVILLE   CLOUDY    62  61  97 SW7       29.63S
HENDERSON      CLOUDY    62  62 100 S3        29.61F
NACOGDOCHES    CLOUDY    63  61  94 SW5       29.62F
LUFKIN         CLOUDY    65  60  84 SW6       29.61F
$$

SUPPLEMENTAL OBSERVATIONS (CENTRAL)

CITY           SKY/WX    TMP DP  RH WIND       PRES   REMARKS
LAKE TEXOMA      N/A     57  54  88 S7          N/A
PAT MAYSE LAKE   N/A     57  55  94 SE8         N/A
GREENVILLE       N/A     59  55  88 S7          N/A
CEDAR HILL       N/A     55  50  82 S7          N/A
LAKE LIMESTONE   N/A     59  55  88 SW12        N/A
MCGREGOR         N/A     54  52  94 SW6         N/A
TEMPLE           N/A     57  55  94 S3          N/A
$$

SUPPLEMENTAL OBSERVATIONS (WEST)

CITY           SKY/WX    TMP DP  RH WIND       PRES   REMARKS
MILLERS CREEK    N/A     50  45  81 SW14        N/A
GRANBURY         N/A     55  52  88 S5          N/A
COMANCHE         N/A     55  54  94 SW16        N/A
HAMBY            N/A     52  45  76 S9          N/A
IVIE RESERVOIR   N/A     52  45  76 W6          N/A
COLORADO BEND    N/A     54  46  76 SW9         N/A
$$

SUPPLEMENTAL OBSERVATIONS (EAST)

CITY           SKY/WX    TMP DP  RH WIND       PRES   REMARKS
CLARKSVILLE      N/A     59  57  94 SW1         N/A
TEXARKANA        N/A     61  59  94 CALM        N/A
LINDEN           N/A     61  59  94 S1          N/A
CADDO LAKE       N/A    N/A N/A N/A S2          N/A
GILMER           N/A     59  57  94 S2          N/A
HENDERSON        N/A     63  59  88 S6          N/A
LUFKIN           N/A     63  59  88 MISG        N/A
N SABINE NF      N/A     61  59  94 MISG        N/A
S SABINE NF      N/A     61  59  94 SW3         N/A
$$

SUPPLEMENTAL OBSERVATIONS ARE A COLLECTION OF AUTOMATED INSTRUMENTS
THAT ARE MAINTAINED BY A VARIETY OF FEDERAL AND STATE AGENCIES.
CERTAIN ELEMENTS...SUCH AS HUMIDITY VALUES AND SUSTAINED WIND
SPEEDS...MAY BE APPROXIMATED.





U.S. Dept. of Commerce
NOAA National Weather Service
1325 East West Highway
Silver Spring, MD 20910
E-mail: w-nws.webmaster@noaa.gov
Page last modified: May 16, 2007
NATIONAL WEATHER SERVICE: for Safety, for Work, for Fun - FOR LIFE